Time,TemperatureF,DewpointF,PressureIn,WindDirection,WindDirectionDegrees,WindSpeedMPH,WindSpeedGustMPH,Humidity,HourlyPrecipIn,Conditions,Clouds,dailyrainin,SoftwareType,DateUTC
2013-03-08 00:01:00,39.0,35.0,29.79,SE,145,2.0,3.0,84,0.00,,,0.00,,2013-03-08 08:01:00,
2013-03-08 00:11:00,39.0,35.0,29.79,SE,145,2.0,3.0,84,0.00,,,0.00,,2013-03-08 08:11:00,
2013-03-08 00:21:00,39.0,35.0,29.79,SE,145,1.0,3.0,85,0.00,,,0.00,,2013-03-08 08:21:00,
2013-03-08 00:31:00,39.0,35.0,29.78,SE,142,2.0,3.0,85,0.00,,,0.00,,2013-03-08 08:31:00,
2013-03-08 00:41:00,39.0,35.0,29.78,SE,142,2.0,3.0,85,0.00,,,0.00,,2013-03-08 08:41:00,
2013-03-08 00:52:00,39.0,35.0,29.78,NNE,24,1.0,5.0,86,0.00,,,0.00,,2013-03-08 08:52:00,
2013-03-08 01:02:00,38.0,34.0,29.78,SSE,152,2.0,4.0,86,0.00,,,0.00,,2013-03-08 09:02:00,
2013-03-08 01:11:00,38.0,34.0,29.78,SSE,152,2.0,4.0,86,0.00,,,0.00,,2013-03-08 09:11:00,
2013-03-08 01:21:00,38.0,34.0,29.78,SE,140,2.0,4.0,85,0.00,,,0.00,,2013-03-08 09:21:00,
2013-03-08 01:32:00,38.0,34.0,29.79,SE,142,2.0,3.0,86,0.00,,,0.00,,2013-03-08 09:32:00,
2013-03-08 01:42:00,38.0,34.0,29.79,SE,142,2.0,3.0,86,0.00,,,0.00,,2013-03-08 09:42:00,
2013-03-08 01:51:00,38.0,34.0,29.79,SE,142,2.0,3.0,86,0.00,,,0.00,,2013-03-08 09:51:00,
2013-03-08 02:01:00,37.0,34.0,29.78,SSE,154,0.0,3.0,88,0.00,,,0.00,,2013-03-08 10:01:00,
2013-03-08 02:11:00,37.0,34.0,29.78,SSE,154,0.0,3.0,88,0.00,,,0.00,,2013-03-08 10:11:00,
2013-03-08 02:21:00,37.0,34.0,29.78,SE,142,2.0,3.0,89,0.00,,,0.00,,2013-03-08 10:21:00,
2013-03-08 02:31:00,36.0,33.0,29.78,SE,146,2.0,4.0,90,0.00,,,0.00,,2013-03-08 10:31:00,
2013-03-08 02:41:00,36.0,33.0,29.78,SE,146,2.0,4.0,90,0.00,,,0.00,,2013-03-08 10:41:00,
2013-03-08 02:51:00,37.0,34.0,29.77,SE,143,2.0,3.0,90,0.00,,,0.00,,2013-03-08 10:51:00,
2013-03-08 03:01:00,37.0,34.0,29.77,SE,137,1.0,3.0,90,0.00,,,0.00,,2013-03-08 11:01:00,
2013-03-08 03:11:00,37.0,34.0,29.77,SE,137,1.0,3.0,90,0.00,,,0.00,,2013-03-08 11:11:00,
2013-03-08 03:21:00,37.0,34.0,29.76,SE,137,0.0,2.0,89,0.00,,,0.00,,2013-03-08 11:21:00,
2013-03-08 03:32:00,36.0,33.0,29.76,SE,137,1.0,2.0,89,0.00,,,0.00,,2013-03-08 11:32:00,
2013-03-08 03:41:00,36.0,33.0,29.76,SE,137,1.0,2.0,89,0.00,,,0.00,,2013-03-08 11:41:00,
2013-03-08 03:52:00,36.0,33.0,29.75,SE,137,1.0,2.0,90,0.00,,,0.00,,2013-03-08 11:52:00,
2013-03-08 04:01:00,35.0,33.0,29.76,SE,137,1.0,2.0,91,0.00,,,0.00,,2013-03-08 12:01:00,
2013-03-08 04:11:00,35.0,33.0,29.76,SE,137,1.0,2.0,91,0.00,,,0.00,,2013-03-08 12:11:00,
2013-03-08 04:22:00,35.0,33.0,29.76,SE,137,2.0,3.0,92,0.00,,,0.00,,2013-03-08 12:22:00,
2013-03-08 04:32:00,35.0,33.0,29.76,SE,137,1.0,4.0,92,0.00,,,0.00,,2013-03-08 12:32:00,
2013-03-08 04:42:00,35.0,33.0,29.76,SE,137,1.0,4.0,92,0.00,,,0.00,,2013-03-08 12:42:00,
2013-03-08 04:52:00,35.0,33.0,29.76,SE,137,0.0,2.0,93,0.00,,,0.00,,2013-03-08 12:52:00,
2013-03-08 05:01:00,35.0,33.0,29.76,SE,134,2.0,3.0,93,0.00,,,0.00,,2013-03-08 13:01:00,
2013-03-08 05:11:00,35.0,33.0,29.76,SE,134,2.0,3.0,93,0.00,,,0.00,,2013-03-08 13:11:00,
2013-03-08 05:21:00,35.0,33.0,29.76,SE,141,2.0,4.0,92,0.00,,,0.00,,2013-03-08 13:21:00,
2013-03-08 05:32:00,35.0,33.0,29.76,SE,141,1.0,3.0,93,0.00,,,0.00,,2013-03-08 13:32:00,
2013-03-08 05:42:00,35.0,33.0,29.76,SE,141,1.0,3.0,93,0.00,,,0.00,,2013-03-08 13:42:00,
2013-03-08 05:52:00,35.0,33.0,29.77,SE,141,0.0,2.0,93,0.00,,,0.00,,2013-03-08 13:52:00,
2013-03-08 06:02:00,35.0,33.0,29.77,SE,141,2.0,3.0,93,0.00,,,0.00,,2013-03-08 14:02:00,
2013-03-08 06:11:00,35.0,33.0,29.77,SE,141,2.0,3.0,93,0.00,,,0.00,,2013-03-08 14:11:00,
2013-03-08 06:21:00,35.0,33.0,29.77,SE,141,1.0,3.0,94,0.00,,,0.00,,2013-03-08 14:21:00,
2013-03-08 06:32:00,35.0,33.0,29.77,SE,143,1.0,3.0,93,0.00,,,0.00,,2013-03-08 14:32:00,
2013-03-08 06:42:00,35.0,33.0,29.77,SE,143,1.0,3.0,93,0.00,,,0.00,,2013-03-08 14:42:00,
2013-03-08 06:52:00,35.0,33.0,29.77,SE,138,1.0,3.0,92,0.00,,,0.00,,2013-03-08 14:52:00,
2013-03-08 07:02:00,35.0,33.0,29.77,SW,215,0.0,2.0,93,0.00,,,0.00,,2013-03-08 15:02:00,
2013-03-08 07:11:00,35.0,33.0,29.77,SW,215,0.0,2.0,93,0.00,,,0.00,,2013-03-08 15:11:00,
2013-03-08 07:21:00,35.0,33.0,29.77,SSW,209,1.0,2.0,93,0.00,,,0.00,,2013-03-08 15:21:00,
2013-03-08 07:32:00,35.0,33.0,29.77,SSW,209,0.0,1.0,93,0.00,,,0.00,,2013-03-08 15:32:00,
2013-03-08 07:42:00,35.0,33.0,29.77,SSW,209,0.0,1.0,93,0.00,,,0.00,,2013-03-08 15:42:00,
2013-03-08 07:52:00,36.0,34.0,29.77,West,261,0.0,2.0,92,0.00,,,0.00,,2013-03-08 15:52:00,
2013-03-08 08:01:00,37.0,35.0,29.78,West,271,0.0,1.0,92,0.00,,,0.00,,2013-03-08 16:01:00,
2013-03-08 08:11:00,37.0,35.0,29.78,West,271,0.0,1.0,92,0.00,,,0.00,,2013-03-08 16:11:00,
2013-03-08 08:21:00,38.0,36.0,29.78,WNW,283,2.0,5.0,91,0.00,,,0.00,,2013-03-08 16:21:00,
2013-03-08 08:31:00,40.0,36.0,29.79,NW,309,2.0,5.0,85,0.00,,,0.00,,2013-03-08 16:31:00,
2013-03-08 08:41:00,40.0,36.0,29.79,NW,309,2.0,5.0,85,0.00,,,0.00,,2013-03-08 16:41:00,
2013-03-08 08:51:00,43.0,38.0,29.79,WNW,285,1.0,6.0,84,0.00,,,0.00,,2013-03-08 16:51:00,
2013-03-08 09:02:00,45.0,39.0,29.80,NW,312,2.0,6.0,80,0.00,,,0.00,,2013-03-08 17:02:00,
2013-03-08 09:21:00,46.0,39.0,29.80,WNW,292,2.0,6.0,76,0.00,,,0.00,,2013-03-08 17:21:00,
2013-03-08 09:31:00,48.0,40.0,29.80,West,275,3.0,6.0,73,0.00,,,0.00,,2013-03-08 17:31:00,
2013-03-08 09:52:00,49.0,39.0,29.80,WNW,297,4.0,7.0,67,0.00,,,0.00,,2013-03-08 17:52:00,
2013-03-08 10:01:00,50.0,40.0,29.80,West,262,3.0,7.0,68,0.00,,,0.00,,2013-03-08 18:01:00,
2013-03-08 10:11:00,50.0,40.0,29.80,West,262,3.0,7.0,68,0.00,,,0.00,,2013-03-08 18:11:00,
2013-03-08 10:21:00,51.0,40.0,29.80,NW,306,3.0,7.0,65,0.00,,,0.00,,2013-03-08 18:21:00,
2013-03-08 10:31:00,52.0,40.0,29.80,West,267,3.0,7.0,64,0.00,,,0.00,,2013-03-08 18:31:00,
2013-03-08 10:42:00,52.0,40.0,29.80,West,267,3.0,7.0,64,0.00,,,0.00,,2013-03-08 18:42:00,
2013-03-08 10:51:00,53.0,41.0,29.80,NW,313,4.0,8.0,64,0.00,,,0.00,,2013-03-08 18:51:00,
2013-03-08 11:01:00,54.0,41.0,29.80,NW,315,3.0,7.0,61,0.00,,,0.00,,2013-03-08 19:01:00,
2013-03-08 11:11:00,54.0,41.0,29.80,NW,315,3.0,7.0,61,0.00,,,0.00,,2013-03-08 19:11:00,
2013-03-08 11:21:00,55.0,41.0,29.80,West,267,3.0,8.0,60,0.00,,,0.00,,2013-03-08 19:21:00,
2013-03-08 11:31:00,56.0,42.0,29.80,WNW,288,3.0,8.0,59,0.00,,,0.00,,2013-03-08 19:31:00,
2013-03-08 11:41:00,56.0,42.0,29.80,WNW,288,3.0,8.0,59,0.00,,,0.00,,2013-03-08 19:41:00,
2013-03-08 11:51:00,58.0,40.0,29.80,WSW,257,4.0,7.0,52,0.00,,,0.00,,2013-03-08 19:51:00,
2013-03-08 12:01:00,58.0,40.0,29.80,NNW,340,4.0,13.0,51,0.00,,,0.00,,2013-03-08 20:01:00,
2013-03-08 12:11:00,58.0,40.0,29.80,NNW,340,4.0,13.0,51,0.00,,,0.00,,2013-03-08 20:11:00,
2013-03-08 12:21:00,59.0,40.0,29.79,WNW,286,3.0,9.0,50,0.00,,,0.00,,2013-03-08 20:21:00,
2013-03-08 12:31:00,60.0,39.0,29.79,West,268,5.0,11.0,45,0.00,,,0.00,,2013-03-08 20:31:00,
2013-03-08 12:41:00,60.0,39.0,29.79,West,268,5.0,11.0,45,0.00,,,0.00,,2013-03-08 20:41:00,
2013-03-08 12:52:00,61.0,39.0,29.78,WNW,291,4.0,10.0,44,0.00,,,0.00,,2013-03-08 20:52:00,
2013-03-08 13:01:00,61.0,40.0,29.78,West,281,5.0,10.0,46,0.00,,,0.00,,2013-03-08 21:01:00,
2013-03-08 13:11:00,61.0,40.0,29.78,West,281,5.0,10.0,46,0.00,,,0.00,,2013-03-08 21:11:00,
2013-03-08 13:21:00,62.0,38.0,29.77,WNW,292,5.0,11.0,41,0.00,,,0.00,,2013-03-08 21:21:00,
2013-03-08 13:32:00,62.0,39.0,29.77,West,273,5.0,10.0,43,0.00,,,0.00,,2013-03-08 21:32:00,
2013-03-08 13:41:00,62.0,39.0,29.77,West,273,5.0,10.0,43,0.00,,,0.00,,2013-03-08 21:41:00,
2013-03-08 13:51:00,62.0,39.0,29.77,WSW,250,5.0,10.0,42,0.00,,,0.00,,2013-03-08 21:51:00,
2013-03-08 14:01:00,62.0,38.0,29.76,West,275,3.0,10.0,41,0.00,,,0.00,,2013-03-08 22:01:00,
2013-03-08 14:11:00,62.0,38.0,29.76,West,275,3.0,10.0,41,0.00,,,0.00,,2013-03-08 22:11:00,
2013-03-08 14:21:00,62.0,35.0,29.76,WNW,286,3.0,10.0,36,0.00,,,0.00,,2013-03-08 22:21:00,
2013-03-08 14:32:00,63.0,39.0,29.75,WNW,292,4.0,8.0,41,0.00,,,0.00,,2013-03-08 22:32:00,
2013-03-08 14:41:00,63.0,39.0,29.75,WNW,292,4.0,8.0,41,0.00,,,0.00,,2013-03-08 22:41:00,
2013-03-08 14:52:00,63.0,37.0,29.76,WSW,246,4.0,9.0,38,0.00,,,0.00,,2013-03-08 22:52:00,
2013-03-08 15:01:00,62.0,39.0,29.76,WNW,291,4.0,9.0,42,0.00,,,0.00,,2013-03-08 23:01:00,
2013-03-08 15:11:00,62.0,39.0,29.76,WNW,291,4.0,9.0,42,0.00,,,0.00,,2013-03-08 23:11:00,
2013-03-08 15:21:00,63.0,39.0,29.76,West,260,4.0,12.0,41,0.00,,,0.00,,2013-03-08 23:21:00,
2013-03-08 15:31:00,63.0,40.0,29.76,West,275,6.0,12.0,43,0.00,,,0.00,,2013-03-08 23:31:00,
2013-03-08 15:41:00,63.0,40.0,29.76,West,275,6.0,12.0,43,0.00,,,0.00,,2013-03-08 23:41:00,
2013-03-08 15:52:00,63.0,40.0,29.76,West,269,2.0,10.0,43,0.00,,,0.00,,2013-03-08 23:52:00,
2013-03-08 16:01:00,62.0,39.0,29.76,WNW,283,4.0,12.0,42,0.00,,,0.00,,2013-03-09 00:01:00,
2013-03-08 16:11:00,62.0,39.0,29.76,WNW,283,4.0,12.0,42,0.00,,,0.00,,2013-03-09 00:11:00,
2013-03-08 16:21:00,62.0,37.0,29.76,NW,323,5.0,13.0,40,0.00,,,0.00,,2013-03-09 00:21:00,
2013-03-08 16:31:00,62.0,38.0,29.76,WNW,288,5.0,10.0,41,0.00,,,0.00,,2013-03-09 00:31:00,
2013-03-08 16:41:00,62.0,38.0,29.76,WNW,288,5.0,10.0,41,0.00,,,0.00,,2013-03-09 00:41:00,
2013-03-08 16:52:00,61.0,37.0,29.77,WNW,294,6.0,15.0,41,0.00,,,0.00,,2013-03-09 00:52:00,
2013-03-08 17:01:00,59.0,37.0,29.77,West,262,7.0,19.0,44,0.00,,,0.00,,2013-03-09 01:01:00,
2013-03-08 17:12:00,59.0,37.0,29.77,West,262,7.0,19.0,44,0.00,,,0.00,,2013-03-09 01:12:00,
2013-03-08 17:21:00,58.0,38.0,29.78,NNW,340,3.0,9.0,48,0.00,,,0.00,,2013-03-09 01:21:00,
2013-03-08 17:31:00,56.0,38.0,29.78,WNW,300,4.0,13.0,51,0.00,,,0.00,,2013-03-09 01:31:00,
2013-03-08 17:41:00,56.0,38.0,29.78,WNW,300,4.0,13.0,51,0.00,,,0.00,,2013-03-09 01:41:00,
2013-03-08 17:51:00,55.0,40.0,29.79,West,276,5.0,10.0,56,0.00,,,0.00,,2013-03-09 01:51:00,
2013-03-08 18:01:00,53.0,39.0,29.80,North,355,5.0,10.0,60,0.00,,,0.00,,2013-03-09 02:01:00,
2013-03-08 18:11:00,53.0,39.0,29.80,North,355,5.0,10.0,60,0.00,,,0.00,,2013-03-09 02:11:00,
2013-03-08 18:21:00,52.0,39.0,29.80,West,259,2.0,9.0,62,0.00,,,0.00,,2013-03-09 02:21:00,
2013-03-08 18:31:00,50.0,38.0,29.81,WNW,286,2.0,7.0,64,0.00,,,0.00,,2013-03-09 02:31:00,
2013-03-08 19:01:00,48.0,38.0,29.83,WNW,284,3.0,8.0,68,0.00,,,0.00,,2013-03-09 03:01:00,
2013-03-08 19:21:00,48.0,38.0,29.83,WNW,284,3.0,8.0,68,0.00,,,0.00,,2013-03-09 03:21:00,
2013-03-08 19:31:00,46.0,37.0,29.85,WNW,283,3.0,8.0,72,0.00,,,0.00,,2013-03-09 03:31:00,
2013-03-08 19:52:00,46.0,38.0,29.85,WNW,286,3.0,8.0,74,0.00,,,0.00,,2013-03-09 03:52:00,
2013-03-08 20:01:00,46.0,38.0,29.85,WNW,286,3.0,8.0,74,0.00,,,0.00,,2013-03-09 04:01:00,
2013-03-08 20:11:00,46.0,38.0,29.85,WNW,286,3.0,8.0,74,0.00,,,0.00,,2013-03-09 04:11:00,
2013-03-08 20:22:00,44.0,37.0,29.86,West,265,3.0,5.0,76,0.00,,,0.00,,2013-03-09 04:22:00,
2013-03-08 20:31:00,43.0,37.0,29.87,WSW,238,0.0,3.0,80,0.00,,,0.00,,2013-03-09 04:31:00,
2013-03-08 20:42:00,43.0,37.0,29.87,WSW,238,0.0,3.0,80,0.00,,,0.00,,2013-03-09 04:42:00,
2013-03-08 20:52:00,42.0,37.0,29.88,West,261,1.0,5.0,81,0.00,,,0.00,,2013-03-09 04:52:00,
2013-03-08 21:01:00,42.0,37.0,29.88,SSW,203,1.0,4.0,82,0.00,,,0.00,,2013-03-09 05:01:00,
2013-03-08 21:11:00,42.0,37.0,29.88,SSW,203,1.0,4.0,82,0.00,,,0.00,,2013-03-09 05:11:00,
2013-03-08 21:21:00,41.0,36.0,29.89,SSE,155,1.0,3.0,83,0.00,,,0.00,,2013-03-09 05:21:00,
2013-03-08 21:31:00,41.0,37.0,29.90,South,170,0.0,2.0,84,0.00,,,0.00,,2013-03-09 05:31:00,
2013-03-08 21:42:00,41.0,37.0,29.90,South,170,0.0,2.0,84,0.00,,,0.00,,2013-03-09 05:42:00,
2013-03-08 21:53:00,41.0,37.0,29.91,SW,214,0.0,4.0,85,0.00,,,0.00,,2013-03-09 05:53:00,
2013-03-08 22:01:00,40.0,36.0,29.91,West,271,2.0,6.0,86,0.00,,,0.00,,2013-03-09 06:01:00,
2013-03-08 22:11:00,41.0,37.0,29.91,West,268,0.0,5.0,85,0.00,,,0.00,,2013-03-09 06:11:00,
2013-03-08 22:22:00,41.0,37.0,29.91,West,268,0.0,5.0,85,0.00,,,0.00,,2013-03-09 06:22:00,
2013-03-08 22:31:00,41.0,37.0,29.92,WSW,257,1.0,5.0,85,0.00,,,0.00,,2013-03-09 06:31:00,
2013-03-08 22:41:00,41.0,37.0,29.92,WSW,257,1.0,5.0,85,0.00,,,0.00,,2013-03-09 06:41:00,
2013-03-08 22:52:00,41.0,37.0,29.92,SW,232,2.0,9.0,86,0.00,,,0.00,,2013-03-09 06:52:00,
2013-03-08 23:01:00,41.0,37.0,29.93,WNW,299,2.0,4.0,85,0.00,,,0.00,,2013-03-09 07:01:00,
2013-03-08 23:11:00,41.0,37.0,29.93,WNW,299,2.0,4.0,85,0.00,,,0.00,,2013-03-09 07:11:00,
2013-03-08 23:21:00,40.0,36.0,29.93,SSW,206,1.0,3.0,86,0.00,,,0.00,,2013-03-09 07:21:00,
2013-03-08 23:31:00,40.0,36.0,29.93,WSW,240,1.0,4.0,87,0.00,,,0.00,,2013-03-09 07:31:00,
2013-03-08 23:41:00,40.0,36.0,29.93,WSW,240,1.0,4.0,87,0.00,,,0.00,,2013-03-09 07:41:00,
2013-03-08 23:52:00,40.0,36.0,29.93,WSW,248,1.0,3.0,87,0.00,,,0.00,,2013-03-09 07:52:00,